Location: Viterbo
(42.4170°N, 12.1000°E)
Time: 20:45:27
(UTC+02:00)

ISS - Visible Passes

Search period start: 24 September 2022 00:00
Search period end: 04 October 2022 00:00
Orbit: 414 x 417 km, 51.6° (Epoch: 24 September)

Date Brightness Start Highest point End Pass type
(mag) Time Alt. Az. Time Alt. Az. Time Alt. Az.
24 Sep -1.4 19:46:09 10° NW 19:48:35 18° N 19:51:01 10° NE visible
24 Sep -1.2 21:23:40 10° NW 21:25:11 17° NNW 21:25:11 17° NNW visible
25 Sep -1.6 20:35:01 10° NW 20:37:22 18° N 20:38:21 16° NNE visible
26 Sep -1.5 19:46:12 10° NW 19:48:29 17° N 19:50:45 10° NE visible
26 Sep -1.3 21:23:00 10° NW 21:24:23 19° NNW 21:24:23 19° NNW visible
27 Sep -2.1 20:34:25 10° NW 20:37:10 23° NNE 20:37:33 22° NNE visible
28 Sep -1.8 19:45:47 10° NW 19:48:18 19° N 19:50:43 10° ENE visible
28 Sep -1.3 21:22:14 10° NW 21:23:36 22° NW 21:23:36 22° NW visible
29 Sep -2.9 20:33:37 10° NW 20:36:47 37° NNE 20:36:48 37° NNE visible
30 Sep -2.4 19:45:00 10° NW 19:47:56 27° NNE 19:50:02 15° ENE visible
30 Sep -1.2 21:21:33 10° WNW 21:22:55 22° WNW 21:22:55 22° WNW visible
01 Oct -3.9 20:32:47 10° NW 20:36:08 84° NNE 20:36:12 83° ENE visible
02 Oct -3.4 19:44:05 10° NW 19:47:23 52° NNE 19:49:33 19° E visible
02 Oct -0.9 21:21:17 10° W 21:22:27 16° W 21:22:27 16° W visible
03 Oct -2.6 20:32:09 10° WNW 20:35:15 35° SW 20:35:53 32° SSW visible
